Timeline UpdatesTrip UpdatesNews PostsPvt Posts♥♥Travel TipsAdmin PostsConv PostsFollowed PostsChat RequestsBlog PostsPNR Posts

Disclaimer
Search
 
 
Fri Oct 31, 2014 22:47:00 ISTHomeTrainsΣChainsAtlasPNRForumGalleryNewsFAQTripsMembersLoginFeedback
No Recent News for this Train
Other Trains in the News **new
Latest...
Temporary Stoppage at Mahadevsal Station every Sunday and Monday from 23.07.2013 to 21.08.2013 during Shravani Melaa
Tue Jul 23, 2013 (10:09AM)
⇐ Return Journey: Train# 18029

18030/Shalimar-Mumbai LTT [Kurla] Express

Time-Table HAS CHANGED.
Sep 28 2014 (12:58PM)
Change Departure Station:
Change Arrival Station:
Post a Train Travel TipPost a Train Travel Tip **new
Post a Comment/Question/Picture/VideoPost a Comment/Question/Picture/Video
Pantry/Catering
✕ NO Pantry Car
✓ Catering Avbl
RSA - Rake Sharing
runs with 5 dedicated rake.. no RSA...
Rake/Coach Composition
LOCO-HCPV-HCPV-SLR-GS-S13-S12-S11-S10-S9-S8-S7-S6-S5-S4-S3-S2-S1-B1-A1-GS-SLR-HCPV-HCPV
Loco
HWH/SRC WAP-4
News    PNR    Forum    Time-Table    Availability    Fare Chart    Map    Arr/Dep History    Trips    Gallery    ΣChains    X/O    Timeline    
Travel Time: 17h 16m    40 halts    Distance: 894 km    Avg Speed: 51 km/hr
Type: Mail/Express
Zone: SER/South Eastern
Departs @ 15:00 (Avg on time)
Platform# 1
SMTWTFS
Kolkata Shalimar/SHM 
Arrives @ 08:16 +1 night (Avg 29m late)
Platform# ???
SMTWTFS
Raj Nandgaon/RJN 

40 halts. 140 intermediate Stations between Kolkata Shalimar and Raj Nandgaon

Show ALL intermediate Stations  Show Old Time-Table

#TrkCodeStation NameX/OArrivesAvgDepartsAvgHaltPFDay#KmSpeedElevZoneAddress
1/==/SHMKolkata Shalimar (2)»  -15:00+0110.0285mSERSHIBPUR . DIST- Howrah, West Bengal
2/==/SRCKolkata Santragachi Junction (6)  15:11 15:10+615:12+61 2m114.7657mSERDist: Howrah - 711104, West Bengal
3/==/ULBUluberia (6)XO  15:36 15:35+1015:37+131 2m1129.55010mSERdist - howrah, West Bengal
4/==/MCAMecheda (6)X  16:09 16:08+1016:10+231 2m--155.52710mSERdist - purba Medinipur, West Bengal
5/==/PKUPanskura Junction (6)X  16:39 16:38+916:40+231 2m--167.9489mSERPanskura, West Bengal
6/==/KGPKharagpur Junction (10)X  17:35+717:50+615m--1112.37142mSERKharagpur, West Bengal
7/==/JGMJhargram (4)X  18:24 18:23+918:25+91 2m--1151.48382mSERJhargram, West Bengal
8/==/CKUChakulia (4)  18:47 18:46+718:48+71 2m--1180.787126mSERChakulia, Jharkhand
9/==/GTSGhatsila (3)  19:11 19:09+319:12 19:11+31 2m--1211.260103mSEREast Singhbhum, Jharkhand
10/==/GUDGaludih (4)  19:23 19:21+519:24 19:23+51 2m--1221.246120mSEREast Singhbhum, Jharkhand
11/==/RHERakha Mines (2)  19:34 19:32+019:35 19:34+21 2m--1228.145118mSEREast Singhbhum, Jharkhand
12/==/TATATatanagar Junction (5)X  20:05 20:00+920:10 20:05+125m--1247.456164mSER91-657-2423026, Jharkhand
13/==/SINISini Junction (3)  20:36 20:34+1320:37 20:35+141m--1274.461182mSERNational Highway 33, Jharkhand
14/==/RKSNRajkharsawan Junction (3)  20:53 20:50+1720:54 20:51+181m--1289.671189mSERSaraikela Kharswan District, Jharkhand
15/==/CKPChakradharpur (3)X  21:11 21:08+1921:16 21:13+205m11309.679235mSERChakradharpur (West Singhbhum), Jharkhand
16/==/SWRSonua  21:31 21:29+2221:32 21:30+231m--1330.664287mSERSonua, Jharkhand
17/==/GOLGoilkera (2)X  21:44 21:42+2321:45 21:43+241m--1343.457333mSERGoilkera, Jharkhand
18/==/MOUManoharpur  22:15 22:12+2222:16 22:13+231m--1370.974228mSERManoharpur, Jharkhand
19/==/BNDMBondamunda (2)  22:42 22:40+2122:43 22:41+201m--1404.221213mSERRourkela, Odisha
20/--/ROURourkela Junction (5)X  23:03 23:00+1923:13 23:10+1910m21410.769198mSERRourkela, Odisha
21/==/GPRaj Gangpur (3)  23:40 23:36+2423:41 23:37+251m11440.569237mSERRaj Ganpur, Odisha
22/==/BMBBamra (3)  00:09 00:07+2300:10 00:08+241m--2475.152259mSERBamra PH : 06642-229268, Odisha
23/==/JSGJharsuguda Junction (5)XO  00:50+1400:55+175m12511.688236mSERJharsuguda, Odisha
24/==/BRJNBrajrajnagarX  01:04 01:03+2601:05+271 2m--2523.367212mSECRBrajrajnagar, Odisha
25/==/BPHBelpahar (2)  01:14 01:13+2801:15+281 2m--2532.285235mSECRBelpahar, Odisha
26/==/RIGRaigarh (3)  01:51+3101:56+335m--2583.393220mSECRRaigarh, Chhattisgarh
27/==/KHSKharsia  02:19 02:18+4302:20+431 2m--2617.277 SECRNational Highway 200, Chhattisgarh
28/==/SKTSakti (4)  02:33 02:32+4502:34+451 2m--2632.676237mSECRJanjgir-Champa, Chhattisgarh
29/==/CPHChampa Junction (3)X  02:58+4603:03+445m--2663.072264mSECRNational Highway 200 (07819-245767), Chhattisgarh
30/==/NIANailaX  03:13 03:12+4603:14+451 2m--2673.975273mSECRJanjgir, Chhattisgarh
31/==/AKTAkaltara (4)  03:27 03:26+4403:28+441 2m--2688.829284mSECRDist. Janjgir Champa, Chhattisgarh
32/==/BSPBilaspur Junction (8)  04:25+1504:45+2120m32716.049271mSECRBilaspur, Chhattisgarh
33/==/BYLBelha  05:04+1905:05+201m--2731.680269mSECRCollege Road, Chhattisgarh
34/==/BYTBhatapara (4)  05:29 05:28+2305:30+231 2m--2762.287270mSECRBanjari Road, Chhattisgarh
35/==/TLDTilda (3)  05:49 05:48+2405:50+241 2m12788.351 SECRBanjari Rd, Chhattisgarh
36/==/RRaipur Junction (6)X  06:35+2106:45+2310m12826.570297mSECRRaipur, Chhattisgarh
37/==/DBECDevbaloda CharodaX  07:02-07:03-1m--2846.441310mSECRBhilai, Chhattisgarh
38/==/BIABhilai (2)X  07:09 07:08+2907:10+281 2m--2849.846309mSECRBhilai, Chhattisgarh
39/==/BPHBBhilai Power House (3)  07:17 07:16+307:18+31 2m--2854.527312mSECRBhilai, Chhattisgarh
40/==/BQRBhilai Nagar (2)  07:29 07:28+2207:30+221 2m--2858.918298mSECRBhilai, Chhattisgarh
41/==/DURGDurg Junction (6)X  07:45+1907:55+2010m--2863.487299mSECRPh: 91-788-2322059, Chhattisgarh
42/==/RJNRaj Nandgaon (3)•  08:16+2908:21+295m--2893.982313mSECRRajnandgaon, Chhattisgarh
43/==/DGGDongargarh (2)  08:44+3808:45+411m--2925.461 SECRDongargarh, Chhattisgarh
44/==/SKSSalekasa (2)  09:21 09:20+4509:22+451 2m--2961.280312mSECRRajnandgaon, Chhattisgarh
45/==/AGNAmgaon (2)  09:34 09:33+4509:35+461 2m--2975.946317mSECRGondia, Maharashtra
46/==/GGondia Junction (7)X  10:05+3910:15+4310m--2998.792316mSECRGondia 441601, Maharashtra
47/==/TROTirora (3)X  10:35 10:34+4910:36+501 2m--21028.072282mSECRDist Gondia, Maharashtra
48/==/TMRTumsar Road (5)X  10:54 10:53+4810:55+491 2m--21048.367267mSECRDistt. Bhandara, Maharashtra
49/==/BRDBhandara Road (3)  11:12 11:11+4911:13+481 2m--21066.378266mSECRState Highway 252 Bhandara District, Maharashtra
50/==/KPKamptee (3)X  11:51 11:50+4711:52+471 2m--21114.233290mSECRKamptee, Maharashtra
51/==/ITRItwari (3)O  12:12 12:11+4612:13+501 2m--21124.74306mSECRNagpur, Maharashtra
52|--|NGPNagpur Junction (8)X  13:15+1513:40+1525m721128.523314mCRNagpur 440001, Maharashtra
53/==/AJNIAjni (3)  13:48+2013:49+211m221131.582310mCRNagpur 440003, Maharashtra
54/==/SNISindi (2)  14:21+2414:22+261m121175.457258mCRWardha, Maharashtra
55/==/SEGMSewagram Junction (5)X  14:53+2314:54+241m121204.720279mCRWardha, Maharashtra
56/==/WRWardha Junction (4)  15:02+2215:05+213m221207.484289mCRWardha 442001, Maharashtra
57/==/PLOPulgaon Junction (3)  15:26+2515:27+261m221236.970273mCRPulgaon, Maharashtra
58/==/DMNDhamangaon (2)  15:44+2515:45+261m121256.963300mCRDhamangaon, Maharashtra
59/==/CNDChandur (2)X  16:01+2616:02+261m--21273.630331mCRAmravati Distt, Maharashtra
60/==/BDBadnera Junction (4)  17:00+817:05+95m121302.390335mCRBadnera (Amravati) 444701, Maharashtra
61/==/MZRMurtizapur (3)  17:33+1617:35+162m121344.174303mCRMurtajapur, Maharashtra
62/==/AKAkola Junction (7)  18:05+1718:10+175m121381.386284mCRAkola-444001, Maharashtra
63/==/PSParas (2)  18:24+2118:25+231m--21401.374282mCRAkola, Maharashtra
64/==/SEGShegaon (2)  18:39+2518:40+261m--21418.483281mCRShegaon 444203, Maharashtra
65/==/JMJalamb Junction (3)X  18:49+2818:50+281m--21430.982259mCRJalamb, Maharashtra
66/==/NNNandura (2)X  18:59+2919:00+301m--21443.170267mCRNandura, Maharashtra
67/==/MKUMalkapur (2)X  19:24+2819:25+291m121471.062252mCRMalkapur, Maharashtra
68/==/BDWDBodwad (2)X  19:44+2819:45+311m--21490.640294mCRBodwad, Maharashtra
69/==/BSLBhusaval Junction (8)X  20:30+2020:45+2115m521520.960208mCRBhusaval 425201, Maharashtra
70/==/JLJalgaon Junction (4)  21:09+2621:10+281m221545.084213mCRJalgaon 425001, Maharashtra
71/==/PCPachora Junction (4)X  21:44+3321:45+351m--21592.793264mCRPachora 424201, Maharashtra
72/==/CSNChalisgaon Junction (3)  22:14+4022:15+421m--21637.687352mCRChalisgaon 424101, Maharashtra
73/==/NGNNandgaon (3)  22:44+4322:45+451m--21679.761476mCRNandgaon, Maharashtra
74/==/MMRManmad Junction (6)  23:12 23:10+4423:15+453 5m321705.177580mCRManmad 423104, Maharashtra
75/==/LSLasalgaon (3)  23:34+4923:35+501m--21729.672592mCRLasalgaon, Maharashtra
76/==/NKNasik Road (3)X  00:19 00:15+4800:20+471 5m331777.838563mCRNashik 422101, Maharashtra
77/==/DVLDevlali (3)X  00:29+4800:30+491m231783.636561mCRDist. Nashik 422401, Maharashtra
78/==/IGPIgatpuri (4)XO  01:49 01:45+2201:50+281 5m--31828.520589mCRIgatpuri 422403, Maharashtra
79/==/KSRAKasara (4)XO  02:39 02:33+2802:40 02:35+311 2m--31842.958290mCRDist. Thane 421602, Maharashtra
80/==/KYNKalyan Junction (8)O  03:50 03:45+2803:55 03:50+305m631910.36710mCRKalyan 421301, Maharashtra
81/==/TNAThane (10)  04:09 04:08+3004:10+321 2m831930.52510mCRThane (West) 400602, Maharashtra
82/==/LTTMumbai Lokmanya Tilak Terminus (5)  04:50+29-331947.0-7mCRMumbai - 400089, Maharashtra
Scroll to Top
Scroll to Bottom